Volver al catálogo

DELTA 1 DEB

ActivoLEO
NORAD 14470·DEBRIS·🇺🇸 United States

Lanzado Nov 6, 1973 desde Vandenberg Space Force Base

Loading…

Próximos Pases (próximas 24 horas)

TLE

ActualizadoSource: Space-Track

Época: Sep 13, 2026, 07:50 UTC

1 14470U 73086GP  26256.32657441  .00000145  00000-0  77948-3 0  9991
2 14470 101.7564 162.7437 0122177  18.9114 103.9808 12.84138315 42771

Sigue DELTA 1 DEB en tiempo real con AllMySat

Download on the App Store